[[{"header":{"parameterUnit":"m.s-1","parameterCategory":1,"la1":30.2991,"la2":30.254,"lo1":-89.0895,"lo2":-89.0444,"dy":0.0017,"dx":0.0017,"nx":28,"ny":28,"refTime":"2024-02-14T09:00:00:Z","depth":0,"parameterNumber":2,"parameterNumberName":"U-component_of_WINDS"},"data":[0,0,0,0,0,0,0,0,0,0,0,0,0,0,0,0,0,0,0,0,0,0,0,0,0,0,0,0,0,0,0,0,0,0,0,0,0,0,0,0,0,0,0,0,0,0,0,0,0,0,0,0,0,0,0,0,0,0,0.7677,0.7677,0,0.7717,0.7718,0.7718,0.7738,0.7738,0.7738,0.7738,0.7778,0.7779,0.778,0,0,0,0,0,0,0,0,0,0,0,0,0,0.7614,0.7615,0.7677,0.7677,0.7678,0.7717,0.7718,0.7718,0.7738,0.7738,0.7738,0.7738,0.7778,0.7779,0.778,0,0,0,0,0,0,0,0,0,0,0,0,0,0.7647,0.7616,0.7677,0.7692,0.7694,0.7717,0.7718,0.7718,0.7738,0.7738,0.7738,0.7738,0.7777,0.7779,0.778,0.7791,0,0,0.7785,0.7786,0,0,0,0,0,0,0,0,0.7645,0.7649,0.7689,0.7691,0.7693,0.7722,0.7711,0.7743,0.7738,0.7721,0.7738,0.7738,0.7759,0.7763,0.777,0.7793,0.7794,0.7786,0.7787,0.7787,0.7788,0,0,0,0,0,0,0,0.7643,0.7647,0.7693,0.769,0.7692,0.7696,0.7701,0.7717,0.774,0.7722,0.7724,0.7729,0.776,0.7768,0.7771,0.7795,0.7785,0.7787,0.7788,0.7789,0.7827,0.7827,0,0,0,0,0,0,0.7638,0.7645,0.7691,0.7694,0.7669,0.7698,0.7703,0.7713,0.774,0.7744,0.7728,0.7729,0.7766,0.7769,0.7773,0.7786,0.7787,0.7789,0.779,0.7827,0.7827,0.7827,0,0,0,0,0,0,0.7637,0.7642,0.769,0.767,0.7676,0.7699,0.771,0.7714,0.7722,0.7744,0.7748,0.7733,0.7766,0.777,0.7786,0.7788,0.7789,0.7791,0.7827,0.7827,0.7827,0.7813,0,0,0,0,0,0,0.7635,0.7641,0.7646,0.767,0.7677,0.7703,0.771,0.7715,0.7725,0.7726,0.7749,0.7753,0.7766,0.7783,0.7788,0.779,0.7792,0.7827,0.7827,0.7827,0.7814,0.7813,0.7812,0,0,0,0,0,0.7632,0.7641,0.7646,0.7652,0.7684,0.7703,0.7707,0.7723,0.7725,0.7729,0.7744,0.7752,0.7787,0.7785,0.779,0.7793,0.7827,0.7827,0.7827,0.7814,0.7813,0.7812,0,0,0,0,0,0,0.7616,0.7644,0.7651,0.7667,0.7682,0.7706,0.7713,0.7721,0.7736,0.7737,0.7755,0.776,0.7774,0.7785,0.7782,0.7804,0.7808,0.7809,0.7796,0.7795,0.7795,0.7792,0.7794,0,0,0,0,0,0.7614,0.7628,0.7652,0.7663,0.7671,0.769,0.7699,0.771,0.7726,0.7733,0.7748,0.7764,0.7778,0.7787,0.7802,0.7815,0.782,0.782,0.7819,0.7818,0.7819,0.7826,0.7826,0.7828,0.7828,0.7828,0,0,0.7611,0.7628,0.7635,0.7661,0.7674,0.7687,0.7696,0.771,0.7719,0.7735,0.7751,0.7762,0.7781,0.7795,0.7802,0.7805,0.7819,0.7818,0.7817,0.7819,0.7826,0.7826,0.7826,0.7828,0.7828,0.7828,0,0,0.7611,0.7626,0.7637,0.765,0.767,0.7683,0.7685,0.7708,0.7716,0.7732,0.7744,0.7755,0.778,0.7792,0.7802,0.7806,0.7814,0.781,0.7806,0.7813,0.7813,0.7813,0.7813,0.7814,0.7811,0.7811,0.7811,0,0.7605,0.7626,0.7642,0.7655,0.7665,0.768,0.7691,0.7703,0.7726,0.7733,0.7735,0.7766,0.7779,0.7796,0.7797,0.7804,0.7807,0.7808,0.7811,0.7812,0.7812,0.7813,0.7813,0.781,0.781,0.781,0.781,0,0.7616,0.763,0.7637,0.7659,0.767,0.7682,0.7699,0.7708,0.7717,0.7729,0.7745,0.7761,0.7779,0.7784,0.7793,0.7802,0.7803,0.7808,0.7812,0.7811,0.7812,0.7812,0.7809,0.7809,0.7809,0.781,0,0,0.7608,0.7639,0.7641,0.7651,0.7673,0.7684,0.7696,0.7714,0.7721,0.7736,0.7746,0.7766,0.7771,0.7782,0.7792,0.7798,0.7799,0.7802,0.7803,0.7801,0.7809,0.7805,0.7805,0.7804,0.7805,0.7805,0.7807,0,0.7611,0.7634,0.7649,0.7666,0.7678,0.7692,0.7702,0.7717,0.7728,0.774,0.7752,0.7766,0.7772,0.7778,0.7784,0.7798,0.7801,0.7798,0.7813,0.7814,0.7808,0.7806,0.7802,0.7803,0.7808,0.7808,0.7808,0,0.7619,0.7634,0.7652,0.7673,0.7678,0.7688,0.7704,0.7716,0.7732,0.774,0.7751,0.7761,0.7774,0.7777,0.7794,0.7791,0.7798,0.7805,0.7806,0.7808,0.7811,0.7807,0.7804,0.7804,0.7809,0.7809,0.7809,0,0.7611,0.7636,0.765,0.7658,0.7682,0.7688,0.7698,0.7714,0.7724,0.7738,0.7744,0.7759,0.7768,0.7779,0.7793,0.7794,0.7808,0.7812,0.7814,0.7814,0.7817,0.7816,0.7814,0.7821,0.7821,0.7821,0.7821,0,0.7613,0.7624,0.7646,0.7655,0.7666,0.7682,0.7693,0.7705,0.7719,0.7729,0.7741,0.7751,0.7768,0.778,0.779,0.7802,0.7806,0.7812,0.7815,0.7811,0.781,0.7816,0.7816,0.7821,0.7821,0.7821,0.7821,0,0.7607,0.7622,0.7638,0.7659,0.7665,0.7673,0.7691,0.7699,0.771,0.7723,0.7727,0.7745,0.7759,0.7774,0.7792,0.7799,0.7811,0.7815,0.7805,0.7807,0.7808,0.7807,0.7809,0.781,0.7817,0.7816,0.7816,0,0.7607,0.7616,0.7638,0.7646,0.7656,0.7668,0.7678,0.7693,0.7702,0.7721,0.7727,0.7741,0.7754,0.7775,0.7789,0.7803,0.7808,0.7807,0.781,0.7805,0.7807,0.7806,0.7807,0.7807,0.7806,0.7806,0.7806,0,0.7607,0.7613,0.7627,0.7642,0.7653,0.7666,0.768,0.7685,0.7703,0.7713,0.7727,0.7736,0.7755,0.7769,0.7785,0.7795,0.7803,0.7805,0.7806,0.7802,0.7796,0.7799,0.7803,0.7805,0.7805,0.7805,0.7805,0.7805,0.7603,0.7611,0.7628,0.7642,0.7653,0.7665,0.7674,0.7686,0.7699,0.7715,0.7723,0.7737,0.7752,0.7774,0.7784,0.7794,0.7797,0.7799,0.7799,0.7799,0.7798,0.7795,0.7797,0.7797,0.7797,0.7797,0.7797,0,0.7603,0.7614,0.7627,0.7645,0.7656,0.7663,0.7678,0.7686,0.7698,0.7712,0.7724,0.7739,0.7753,0.7768,0.7782,0.7787,0.7791,0.779,0.779,0.7792,0.7795,0.7792,0.7787,0.7787,0.7787,0.7787,0.7787,0.7787,0.7604,0.7617,0.7626,0.7645,0.7656,0.767,0.7677,0.7688,0.7699,0.7716,0.7727,0.7737,0.775,0.7765,0.7778,0.7782,0.7786,0.7784,0.7789,0.7791,0.7792,0.7793,0.7791,0.7785,0.7785,0.7785,0.7785,0.7785]},{"header":{"parameterUnit":"m.s-1","parameterCategory":1,"la1":30.2991,"la2":30.254,"lo1":-89.0895,"lo2":-89.0444,"dy":0.0017,"dx":0.0017,"nx":28,"ny":28,"refTime":"2024-02-14T09:00:00:Z","depth":0,"parameterNumber":3,"parameterNumberName":"V-component_of_WINDS"},"data":[0,0,0,0,0,0,0,0,0,0,0,0,0,0,0,0,0,0,0,0,0,0,0,0,0,0,0,0,0,0,0,0,0,0,0,0,0,0,0,0,0,0,0,0,0,0,0,0,0,0,0,0,0,0,0,0,0,0,1.3962,1.3963,0,1.3996,1.3997,1.3997,1.4014,1.4014,1.4014,1.4014,1.4046,1.4047,1.4048,0,0,0,0,0,0,0,0,0,0,0,0,0,1.3909,1.391,1.3962,1.3963,1.3963,1.3996,1.3997,1.3997,1.4014,1.4014,1.4014,1.4014,1.4046,1.4047,1.4048,0,0,0,0,0,0,0,0,0,0,0,0,0,1.3936,1.391,1.3962,1.3975,1.3977,1.3996,1.3997,1.3997,1.4014,1.4014,1.4014,1.4014,1.4045,1.4047,1.4048,1.4056,0,0,1.4052,1.4052,0,0,0,0,0,0,0,0,1.3935,1.3938,1.3973,1.3975,1.3976,1.4001,1.399,1.4017,1.4014,1.4,1.4014,1.4014,1.4031,1.4033,1.404,1.4057,1.4059,1.4052,1.4053,1.4053,1.4054,0,0,0,0,0,0,0,1.3933,1.3937,1.3976,1.3973,1.3975,1.3979,1.3983,1.3995,1.4015,1.4001,1.4002,1.4006,1.4032,1.4038,1.4041,1.4059,1.4052,1.4053,1.4054,1.4054,1.4085,1.4085,0,0,0,0,0,0,1.3929,1.3935,1.3975,1.3977,1.3955,1.398,1.3984,1.3993,1.4015,1.4018,1.4006,1.4007,1.4036,1.4039,1.4042,1.4053,1.4053,1.4055,1.4055,1.4085,1.4085,1.4085,0,0,0,0,0,0,1.3928,1.3932,1.3973,1.3956,1.3962,1.3981,1.399,1.3994,1.4,1.4019,1.4022,1.401,1.4036,1.404,1.4052,1.4054,1.4055,1.4056,1.4085,1.4085,1.4085,1.4074,0,0,0,0,0,0,1.3926,1.3932,1.3936,1.3956,1.3963,1.3984,1.3991,1.3994,1.4003,1.4004,1.4023,1.4026,1.4037,1.405,1.4054,1.4056,1.4057,1.4085,1.4085,1.4085,1.4075,1.4074,1.4073,0,0,0,0,0,1.3924,1.3931,1.3936,1.394,1.3968,1.3984,1.3988,1.4001,1.4003,1.4006,1.4018,1.4025,1.4053,1.4052,1.4055,1.4058,1.4085,1.4085,1.4085,1.4075,1.4074,1.4073,0,0,0,0,0,0,1.3908,1.3933,1.394,1.3953,1.3966,1.3987,1.3992,1.3999,1.4012,1.4012,1.4027,1.4031,1.4042,1.4051,1.4049,1.4067,1.407,1.4071,1.4061,1.406,1.4059,1.4057,1.4058,0,0,0,0,0,1.3907,1.3919,1.394,1.3949,1.3956,1.3973,1.398,1.3989,1.4003,1.4009,1.4022,1.4034,1.4046,1.4054,1.4065,1.4076,1.408,1.4079,1.4079,1.4078,1.4079,1.4085,1.4085,1.4086,1.4086,1.4086,0,0,1.3903,1.3918,1.3924,1.3946,1.3958,1.3969,1.3977,1.3989,1.3997,1.401,1.4023,1.4033,1.4048,1.406,1.4066,1.4068,1.408,1.4078,1.4078,1.4079,1.4085,1.4085,1.4085,1.4086,1.4086,1.4086,0,0,1.3902,1.3914,1.3924,1.3936,1.3954,1.3965,1.3967,1.3987,1.3994,1.4007,1.4018,1.4027,1.4047,1.4058,1.4066,1.4069,1.4076,1.4072,1.4069,1.4075,1.4075,1.4075,1.4076,1.4076,1.4073,1.4073,1.4073,0,1.3894,1.3913,1.3928,1.3939,1.3948,1.3962,1.3971,1.3982,1.4002,1.4008,1.401,1.4035,1.4046,1.4061,1.4062,1.4068,1.407,1.407,1.4074,1.4074,1.4074,1.4076,1.4076,1.4072,1.4072,1.4072,1.4072,0,1.3903,1.3916,1.3921,1.3942,1.3951,1.3962,1.3978,1.3986,1.3994,1.4004,1.4018,1.4032,1.4047,1.4051,1.4058,1.4066,1.4067,1.4071,1.4075,1.4074,1.4075,1.4076,1.4071,1.4072,1.4072,1.4072,0,0,1.3893,1.3922,1.3924,1.3933,1.3954,1.3964,1.3974,1.399,1.3996,1.401,1.4019,1.4036,1.404,1.4049,1.4058,1.4063,1.4065,1.4067,1.4068,1.4066,1.4074,1.4071,1.4071,1.407,1.407,1.407,1.4073,0,1.3894,1.3915,1.3929,1.3944,1.3956,1.3969,1.3979,1.3992,1.4002,1.4013,1.4024,1.4036,1.4041,1.4046,1.4052,1.4064,1.4067,1.4063,1.4078,1.4078,1.4074,1.4072,1.4069,1.4071,1.4074,1.4074,1.4074,0,1.3899,1.3914,1.393,1.395,1.3956,1.3964,1.398,1.399,1.4005,1.4012,1.4022,1.4032,1.4043,1.4045,1.4061,1.4058,1.4065,1.4071,1.4072,1.4073,1.4076,1.4074,1.4072,1.4072,1.4075,1.4075,1.4075,0,1.389,1.3913,1.3927,1.3934,1.3958,1.3963,1.3973,1.3989,1.3997,1.401,1.4016,1.403,1.4038,1.4048,1.406,1.4061,1.4074,1.4078,1.408,1.408,1.4082,1.4082,1.4082,1.4086,1.4086,1.4086,1.4086,0,1.389,1.39,1.3923,1.3931,1.3942,1.3958,1.3968,1.3979,1.3992,1.4002,1.4014,1.4022,1.4039,1.4049,1.4059,1.407,1.4073,1.4079,1.4081,1.4078,1.4077,1.4082,1.4082,1.4087,1.4086,1.4086,1.4086,0,1.3882,1.3898,1.3913,1.3934,1.394,1.3947,1.3965,1.3973,1.3984,1.3996,1.4,1.4017,1.403,1.4044,1.4061,1.4068,1.4079,1.4082,1.4074,1.4075,1.4077,1.4076,1.408,1.4081,1.4085,1.4085,1.4085,0,1.3881,1.3889,1.3912,1.392,1.393,1.3942,1.3952,1.3967,1.3976,1.3994,1.4,1.4014,1.4026,1.4046,1.406,1.4073,1.4077,1.4077,1.4079,1.4075,1.4077,1.4076,1.4077,1.4076,1.4076,1.4076,1.4076,0,1.3878,1.3886,1.3899,1.3916,1.3927,1.394,1.3953,1.3959,1.3977,1.3986,1.4,1.401,1.4028,1.4042,1.4057,1.4066,1.4074,1.4075,1.4077,1.4073,1.4068,1.4071,1.4072,1.4075,1.4075,1.4075,1.4075,1.4075,1.3874,1.3882,1.3899,1.3913,1.3926,1.3938,1.3947,1.396,1.3972,1.3989,1.3997,1.4011,1.4026,1.4047,1.4056,1.4067,1.4069,1.4071,1.4071,1.4072,1.4071,1.4067,1.407,1.407,1.407,1.407,1.407,0,1.3871,1.3883,1.3897,1.3916,1.3927,1.3935,1.395,1.3959,1.3972,1.3986,1.3998,1.4014,1.4027,1.4042,1.4056,1.4062,1.4066,1.4065,1.4065,1.4067,1.4068,1.4066,1.4062,1.4062,1.4062,1.4062,1.4062,1.4062,1.3871,1.3885,1.3895,1.3915,1.3926,1.3941,1.3949,1.3961,1.3972,1.399,1.4002,1.4012,1.4026,1.4041,1.4054,1.4058,1.4062,1.4061,1.4066,1.4066,1.4067,1.4067,1.4065,1.4062,1.4062,1.4064,1.4064,1.4064]}]]